Location: Zagreb
(45.8000°N, 16.0000°E)
Time: 01:37:47
(UTC+01:00)

SR - Pass Details

Date: 18 August 2020
Orbit: 576 x 879 km, 66.7° (Epoch: 15 January)

Event Time Altitude Azimuth Distance (km) Brightness Sun altitude
Rises 06:19:53 0° 315° (NW) 2,836 ? 2.5°
Reaches altitude 10° 06:22:23 10° 302° (WNW) 1,959 ? 2.9°
Maximum altitude 06:25:55 24° 248° (WSW) 1,304 ? 3.5°
Drops below altitude 10° 06:29:38 10° 194° (SSW) 2,067 ? 4.1°
Sets 06:32:22 0° 181° (S) 3,031 ? 4.6°
